"Sample Date","Sample Time","Sample Value","Units","Flow Rate","Sample Interval","Number Channels","Micron Size 0","Counts/Channel 0","Micron Size 1","Counts/Channel 1","Micron Size 2","Counts/Channel 2","Micron Size 3","Counts/Channel 3","Micron Size 4","Counts/Channel 4","Micron Size 5","Counts/Channel 5","Micron Size 6","Counts/Channel 6","Micron Size 7","Counts/Channel 7","Micron Size 8","Counts/Channel 8","Micron Size 9","Counts/Channel 9","Micron Size 10","Counts/Channel 10","Micron Size 11","Counts/Channel 11","Micron Size 12","Counts/Channel 12","Micron Size 13","Counts/Channel 13","Micron Size 14","Counts/Channel 14","Micron Size 15","Counts/Channel 15","Micron Size 16","Counts/Channel 16","Micron Size 17","Counts/Channel 17","Micron Size 18","Counts/Channel 18","Micron Size 19","Counts/Channel 19","Micron Size 20","Counts/Channel 20","Micron Size 21","Counts/Channel 21","Micron Size 22","Counts/Channel 22","Micron Size 23","Counts/Channel 23","Micron Size 24","Counts/Channel 24","Micron Size 25","Counts/Channel 25","Micron Size 26","Counts/Channel 26","Micron Size 27","Counts/Channel 27","Micron Size 28","Counts/Channel 28","Micron Size 29","Counts/Channel 29","Micron Size 30","Counts/Channel 30","Micron Size 31","Counts/Channel 31"
"03/10/08","00:00:04",28713.000,"cc",28302.703,6.00,6,0.100,15035.000,0.200,9039.000,0.300,3168.000,0.500,1297.000,1.000,174.000,5.000,0
"03/10/08","00:00:10",28005.000,"cc",28272.818,6.00,6,0.100,14328.000,0.200,9009.000,0.300,3174.000,0.500,1349.000,1.000,145.000,5.000,0
"03/10/08","00:00:16",27308.000,"cc",28312.301,6.00,6,0.100,13678.000,0.200,9065.000,0.300,3100.000,0.500,1312.000,1.000,153.000,5.000,0
"03/10/08","00:00:22",27582.000,"cc",28351.824,6.00,6,0.100,14011.000,0.200,8877.000,0.300,3111.000,0.500,1406.000,1.000,177.000,5.000,0
"03/10/08","00:00:28",27194.000,"cc",28369.148,6.00,6,0.100,13673.000,0.200,8980.000,0.300,3034.000,0.500,1333.000,1.000,174.000,5.000,0
"03/10/08","00:00:34",33028.000,"cc",28313.770,6.00,6,0.100,18785.000,0.200,9649.000,0.300,3118.000,0.500,1300.000,1.000,176.000,5.000,0
"03/10/08","00:00:40",29393.000,"cc",28302.904,6.00,6,0.100,15522.000,0.200,9317.000,0.300,3129.000,0.500,1268.000,1.000,157.000,5.000,0
"03/10/08","00:00:46",29518.000,"cc",28323.160,6.00,6,0.100,15652.000,0.200,9186.000,0.300,3136.000,0.500,1357.000,1.000,187.000,5.000,0
"03/10/08","00:00:52",27235.000,"cc",28339.746,6.00,6,0.100,13745.000,0.200,8975.000,0.300,2991.000,0.500,1345.000,1.000,179.000,5.000,0
"03/10/08","00:00:58",28880.000,"cc",28291.811,6.00,6,0.100,15251.000,0.200,9034.000,0.300,3094.000,0.500,1317.000,1.000,184.000,5.000,0
"03/10/08","00:01:04",35010.000,"cc",28331.793,6.00,6,0.100,20096.000,0.200,10016.000,0.300,3215.000,0.500,1455.000,1.000,228.000,5.000,0
"03/10/08","00:01:10",33049.000,"cc",28257.875,6.00,6,0.100,19106.000,0.200,9587.000,0.300,3010.000,0.500,1210.000,1.000,136.000,5.000,0
"03/10/08","00:01:16",34020.000,"cc",28375.762,6.00,6,0.100,19503.000,0.200,9789.000,0.300,3214.000,0.500,1336.000,1.000,178.000,5.000,0
"03/10/08","00:01:22",32149.000,"cc",28356.131,6.00,6,0.100,17880.000,0.200,9571.000,0.300,3177.000,0.500,1352.000,1.000,169.000,5.000,0
"03/10/08","00:01:28",29806.000,"cc",28298.150,6.00,6,0.100,16032.000,0.200,9164.000,0.300,3129.000,0.500,1319.000,1.000,162.000,5.000,0
"03/10/08","00:01:34",31546.000,"cc",28279.949,6.00,6,0.100,17637.000,0.200,9409.000,0.300,3036.000,0.500,1283.000,1.000,181.000,5.000,0
"03/10/08","00:01:40",28419.000,"cc",28277.436,6.00,6,0.100,14646.000,0.200,9227.000,0.300,3034.000,0.500,1339.000,1.000,173.000,5.000,0
"03/10/08","00:01:46",29440.000,"cc",28223.691,6.00,6,0.100,15933.000,0.200,9142.000,0.300,2929.000,0.500,1268.000,1.000,168.000,5.000,0
"03/10/08","00:01:52",27761.000,"cc",28299.801,6.00,6,0.100,14380.000,0.200,9152.000,0.300,2863.000,0.500,1227.000,1.000,139.000,5.000,0
"03/10/08","00:01:58",29458.000,"cc",28379.467,6.00,6,0.100,15770.000,0.200,9312.000,0.300,2959.000,0.500,1257.000,1.000,160.000,5.000,0
"03/10/08","00:02:04",27532.000,"cc",28350.592,6.00,6,0.100,14128.000,0.200,8956.000,0.300,3004.000,0.500,1271.000,1.000,173.000,5.000,0
"03/10/08","00:02:10",27570.000,"cc",28284.832,6.00,6,0.100,14184.000,0.200,8882.000,0.300,3095.000,0.500,1256.000,1.000,153.000,5.000,0
"03/10/08","00:02:16",28758.000,"cc",28357.865,6.00,6,0.100,15172.000,0.200,9001.000,0.300,3018.000,0.500,1384.000,1.000,183.000,5.000,0
"03/10/08","00:02:22",27245.000,"cc",28310.875,6.00,6,0.100,13851.000,0.200,8809.000,0.300,3108.000,0.500,1300.000,1.000,177.000,5.000,0
"03/10/08","00:02:28",28222.000,"cc",28312.035,6.00,6,0.100,14325.000,0.200,9264.000,0.300,3099.000,0.500,1348.000,1.000,186.000,5.000,0
"03/10/08","00:02:34",27205.000,"cc",28349.635,6.00,6,0.100,13448.000,0.200,9056.000,0.300,3073.000,0.500,1433.000,1.000,195.000,5.000,0
"03/10/08","00:02:40",26030.000,"cc",28289.197,6.00,6,0.100,13004.000,0.200,8680.000,0.300,2886.000,0.500,1286.000,1.000,174.000,5.000,0
"03/10/08","00:02:46",28849.000,"cc",28297.359,6.00,6,0.100,15084.000,0.200,9047.000,0.300,3173.000,0.500,1360.000,1.000,185.000,5.000,0
"03/10/08","00:02:52",28187.000,"cc",28375.799,6.00,6,0.100,14614.000,0.200,9095.000,0.300,2994.000,0.500,1314.000,1.000,170.000,5.000,0
"03/10/08","00:02:58",43453.000,"cc",28339.350,6.00,6,0.100,27855.000,0.200,10938.000,0.300,3098.000,0.500,1384.000,1.000,178.000,5.000,0
"03/10/08","00:03:04",39219.000,"cc",28272.147,6.00,6,0.100,24159.000,0.200,10306.000,0.300,3182.000,0.500,1377.000,1.000,195.000,5.000,0
"03/10/08","00:03:10",32866.000,"cc",28280.904,6.00,6,0.100,18879.000,0.200,9446.000,0.300,3063.000,0.500,1307.000,1.000,171.000,5.000,0
"03/10/08","00:03:16",29807.000,"cc",28299.150,6.00,6,0.100,15936.000,0.200,9265.000,0.300,3110.000,0.500,1339.000,1.000,157.000,5.000,0
"03/10/08","00:03:22",27841.000,"cc",28345.797,6.00,6,0.100,14212.000,0.200,8988.000,0.300,3056.000,0.500,1397.000,1.000,188.000,5.000,0
"03/10/08","00:03:28",26644.000,"cc",28328.229,6.00,6,0.100,13326.000,0.200,8727.000,0.300,3075.000,0.500,1333.000,1.000,183.000,5.000,0
"03/10/08","00:03:34",26594.000,"cc",28309.188,6.00,6,0.100,13282.000,0.200,8839.000,0.300,3000.000,0.500,1315.000,1.000,158.000,5.000,0
"03/10/08","00:03:40",27183.000,"cc",28342.318,6.00,6,0.100,13602.000,0.200,8886.000,0.300,3146.000,0.500,1356.000,1.000,193.000,5.000,0
"03/10/08","00:03:46",27368.000,"cc",28352.061,6.00,6,0.100,13550.000,0.200,9073.000,0.300,3146.000,0.500,1413.000,1.000,186.000,5.000,0
"03/10/08","00:03:52",26976.000,"cc",28356.568,6.00,6,0.100,13409.000,0.200,8858.000,0.300,3114.000,0.500,1416.000,1.000,179.000,5.000,0
"03/10/08","00:03:58",26234.000,"cc",28308.031,6.00,6,0.100,12994.000,0.200,8704.000,0.300,3081.000,0.500,1297.000,1.000,158.000,5.000,0
"03/10/08","00:04:04",28695.000,"cc",28305.590,6.00,6,0.100,14790.000,0.200,9094.000,0.300,3202.000,0.500,1405.000,1.000,204.000,5.000,0
"03/10/08","00:04:10",27478.000,"cc",28280.309,6.00,6,0.100,13961.000,0.200,8787.000,0.300,3187.000,0.500,1353.000,1.000,190.000,5.000,0
"03/10/08","00:04:16",28470.000,"cc",28382.406,6.00,6,0.100,15022.000,0.200,9006.000,0.300,2983.000,0.500,1279.000,1.000,180.000,5.000,0
"03/10/08","00:04:22",30430.000,"cc",28311.680,6.00,6,0.100,16449.000,0.200,9323.000,0.300,3052.000,0.500,1446.000,1.000,160.000,5.000,0
"03/10/08","00:04:28",28079.000,"cc",28276.309,6.00,6,0.100,14248.000,0.200,9106.000,0.300,3105.000,0.500,1439.000,1.000,181.000,5.000,0
"03/10/08","00:04:34",29008.000,"cc",28268.109,6.00,6,0.100,15384.000,0.200,9235.000,0.300,2973.000,0.500,1253.000,1.000,163.000,5.000,0
"03/10/08","00:04:40",29080.000,"cc",28295.231,6.00,6,0.100,15446.000,0.200,9169.000,0.300,3029.000,0.500,1253.000,1.000,183.000,5.000,0
"03/10/08","00:04:46",27448.000,"cc",28310.397,6.00,6,0.100,14037.000,0.200,8880.000,0.300,3140.000,0.500,1226.000,1.000,165.000,5.000,0
"03/10/08","00:04:52",26984.000,"cc",28293.650,6.00,6,0.100,13466.000,0.200,9010.000,0.300,3013.000,0.500,1332.000,1.000,163.000,5.000,0
"03/10/08","00:04:58",30407.000,"cc",28372.387,6.00,6,0.100,16547.000,0.200,9388.000,0.300,3110.000,0.500,1186.000,1.000,176.000,5.000,0
"03/10/08","00:05:04",28861.000,"cc",28269.266,6.00,6,0.100,15122.000,0.200,9076.000,0.300,3181.000,0.500,1305.000,1.000,177.000,5.000,0
"03/10/08","00:05:10",29087.000,"cc",28301.397,6.00,6,0.100,15404.000,0.200,9131.000,0.300,3042.000,0.500,1344.000,1.000,166.000,5.000,0
"03/10/08","00:05:16",27956.000,"cc",28360.135,6.00,6,0.100,14366.000,0.200,9094.000,0.300,3042.000,0.500,1263.000,1.000,191.000,5.000,0
"03/10/08","00:05:22",27070.000,"cc",28397.178,6.00,6,0.100,13771.000,0.200,8805.000,0.300,3047.000,0.500,1301.000,1.000,146.000,5.000,0
"03/10/08","00:05:28",26751.000,"cc",28273.815,6.00,6,0.100,13385.000,0.200,8887.000,0.300,3096.000,0.500,1229.000,1.000,154.000,5.000,0
"03/10/08","00:05:34",26624.000,"cc",28281.443,6.00,6,0.100,13291.000,0.200,8844.000,0.300,3134.000,0.500,1184.000,1.000,171.000,5.000,0
"03/10/08","00:05:40",28385.000,"cc",28304.717,6.00,6,0.100,14841.000,0.200,8953.000,0.300,3127.000,0.500,1297.000,1.000,167.000,5.000,0
"03/10/08","00:05:46",27295.000,"cc",28329.313,6.00,6,0.100,13733.000,0.200,9018.000,0.300,3043.000,0.500,1317.000,1.000,184.000,5.000,0
"03/10/08","00:05:52",27179.000,"cc",28358.818,6.00,6,0.100,13797.000,0.200,8988.000,0.300,2999.000,0.500,1249.000,1.000,146.000,5.000,0
"03/10/08","00:05:58",27143.000,"cc",28318.672,6.00,6,0.100,13687.000,0.200,9038.000,0.300,2997.000,0.500,1267.000,1.000,154.000,5.000,0
"03/10/08","00:06:04",29008.000,"cc",28318.473,6.00,6,0.100,14959.000,0.200,9266.000,0.300,3195.000,0.500,1401.000,1.000,187.000,5.000,0
"03/10/08","00:06:10",27849.000,"cc",28384.842,6.00,6,0.100,14210.000,0.200,8967.000,0.300,3154.000,0.500,1342.000,1.000,176.000,5.000,0
"03/10/08","00:06:16",27987.000,"cc",28323.482,6.00,6,0.100,14104.000,0.200,9140.000,0.300,3249.000,0.500,1325.000,1.000,169.000,5.000,0
"03/10/08","00:06:22",27089.000,"cc",28301.395,6.00,6,0.100,13216.000,0.200,9255.000,0.300,3116.000,0.500,1334.000,1.000,168.000,5.000,0
"03/10/08","00:06:28",27793.000,"cc",28331.119,6.00,6,0.100,13498.000,0.200,9201.000,0.300,3300.000,0.500,1578.000,1.000,216.000,5.000,0
"03/10/08","00:06:34",26328.000,"cc",28306.928,6.00,6,0.100,12900.000,0.200,8933.000,0.300,3042.000,0.500,1317.000,1.000,136.000,5.000,0
"03/10/08","00:06:40",25963.000,"cc",28310.211,6.00,6,0.100,12693.000,0.200,8794.000,0.300,3107.000,0.500,1205.000,1.000,164.000,5.000,0
"03/10/08","00:06:46",26036.000,"cc",28343.711,6.00,6,0.100,12713.000,0.200,8826.000,0.300,2993.000,0.500,1345.000,1.000,159.000,5.000,0
"03/10/08","00:06:52",30730.000,"cc",28292.695,6.00,6,0.100,16623.000,0.200,9435.000,0.300,3121.000,0.500,1383.000,1.000,168.000,5.000,0
"03/10/08","00:06:58",32961.000,"cc",28340.199,6.00,6,0.100,18608.000,0.200,9547.000,0.300,3196.000,0.500,1444.000,1.000,166.000,5.000,0
"03/10/08","00:07:04",35881.000,"cc",28243.990,6.00,6,0.100,21220.000,0.200,9927.000,0.300,3233.000,0.500,1325.000,1.000,176.000,5.000,0
"03/10/08","00:07:10",28903.000,"cc",28309.912,6.00,6,0.100,15068.000,0.200,9130.000,0.300,3202.000,0.500,1359.000,1.000,144.000,5.000,0
"03/10/08","00:07:16",31461.000,"cc",28337.352,6.00,6,0.100,16741.000,0.200,9611.000,0.300,3403.000,0.500,1500.000,1.000,206.000,5.000,0
"03/10/08","00:07:22",30433.000,"cc",28350.023,6.00,6,0.100,16592.000,0.200,9446.000,0.300,3144.000,0.500,1123.000,1.000,128.000,5.000,0
"03/10/08","00:07:28",34430.000,"cc",28367.543,6.00,6,0.100,19955.000,0.200,9920.000,0.300,3050.000,0.500,1319.000,1.000,186.000,5.000,0
"03/10/08","00:07:34",30719.000,"cc",28273.393,6.00,6,0.100,16873.000,0.200,9358.000,0.300,3073.000,0.500,1246.000,1.000,169.000,5.000,0
"03/10/08","00:07:40",29036.000,"cc",28342.799,6.00,6,0.100,15449.000,0.200,9265.000,0.300,3013.000,0.500,1174.000,1.000,135.000,5.000,0
"03/10/08","00:07:46",28423.000,"cc",28265.486,6.00,6,0.100,14627.000,0.200,9372.000,0.300,3020.000,0.500,1263.000,1.000,141.000,5.000,0
"03/10/08","00:07:52",27902.000,"cc",28308.822,6.00,6,0.100,14164.000,0.200,9220.000,0.300,3118.000,0.500,1269.000,1.000,131.000,5.000,0
"03/10/08","00:07:58",26039.000,"cc",28316.430,6.00,6,0.100,12851.000,0.200,8900.000,0.300,3055.000,0.500,1131.000,1.000,102.000,5.000,0
"03/10/08","00:08:04",25892.000,"cc",28283.023,6.00,6,0.100,12865.000,0.200,8694.000,0.300,3019.000,0.500,1185.000,1.000,129.000,5.000,0
"03/10/08","00:08:10",26016.000,"cc",28301.016,6.00,6,0.100,13005.000,0.200,8853.000,0.300,2983.000,0.500,1049.000,1.000,126.000,5.000,0
"03/10/08","00:08:16",26338.000,"cc",28340.596,6.00,6,0.100,13083.000,0.200,8926.000,0.300,3022.000,0.500,1185.000,1.000,122.000,5.000,0
"03/10/08","00:08:22",26296.000,"cc",28345.307,6.00,6,0.100,12913.000,0.200,8992.000,0.300,3061.000,0.500,1200.000,1.000,130.000,5.000,0
"03/10/08","00:08:28",25900.000,"cc",28275.992,6.00,6,0.100,12770.000,0.200,8872.000,0.300,3005.000,0.500,1136.000,1.000,117.000,5.000,0
"03/10/08","00:08:34",26352.000,"cc",28372.748,6.00,6,0.100,12992.000,0.200,8879.000,0.300,3157.000,0.500,1186.000,1.000,138.000,5.000,0
"03/10/08","00:08:40",26366.000,"cc",28355.258,6.00,6,0.100,12863.000,0.200,9062.000,0.300,3194.000,0.500,1130.000,1.000,117.000,5.000,0
"03/10/08","00:08:46",26545.000,"cc",28292.049,6.00,6,0.100,13014.000,0.200,9088.000,0.300,3108.000,0.500,1236.000,1.000,99.000,5.000,0
"03/10/08","00:08:52",29522.000,"cc",28308.711,6.00,6,0.100,15487.000,0.200,9477.000,0.300,3161.000,0.500,1269.000,1.000,128.000,5.000,0
"03/10/08","00:08:58",32965.000,"cc",28364.086,6.00,6,0.100,18558.000,0.200,9839.000,0.300,3201.000,0.500,1225.000,1.000,142.000,5.000,0
"03/10/08","00:09:04",27452.000,"cc",28289.031,6.00,6,0.100,14101.000,0.200,9183.000,0.300,2954.000,0.500,1109.000,1.000,105.000,5.000,0
"03/10/08","00:09:10",27942.000,"cc",28289.121,6.00,6,0.100,14561.000,0.200,9255.000,0.300,3033.000,0.500,975.000,1.000,118.000,5.000,0
"03/10/08","00:09:16",30170.000,"cc",28322.166,6.00,6,0.100,16461.000,0.200,9489.000,0.300,3012.000,0.500,1086.000,1.000,122.000,5.000,0
"03/10/08","00:09:22",27424.000,"cc",28336.869,6.00,6,0.100,14525.000,0.200,9017.000,0.300,2900.000,0.500,920.000,1.000,62.000,5.000,0
"03/10/08","00:09:28",25999.000,"cc",28286.068,6.00,6,0.100,12977.000,0.200,8881.000,0.300,3044.000,0.500,1023.000,1.000,74.000,5.000,0
"03/10/08","00:09:34",26621.000,"cc",28368.666,6.00,6,0.100,13152.000,0.200,9095.000,0.300,3212.000,0.500,1068.000,1.000,94.000,5.000,0
"03/10/08","00:09:40",25581.000,"cc",28249.979,6.00,6,0.100,12537.000,0.200,8851.000,0.300,3092.000,0.500,1005.000,1.000,96.000,5.000,0
"03/10/08","00:09:46",25619.000,"cc",28269.066,6.00,6,0.100,12611.000,0.200,8992.000,0.300,2984.000,0.500,953.000,1.000,79.000,5.000,0
"03/10/08","00:09:52",27895.000,"cc",28346.035,6.00,6,0.100,14108.000,0.200,9272.000,0.300,3202.000,0.500,1173.000,1.000,140.000,5.000,0
"03/10/08","00:09:58",27943.000,"cc",28371.113,6.00,6,0.100,14342.000,0.200,9215.000,0.300,3115.000,0.500,1165.000,1.000,106.000,5.000,0
"03/10/08","00:10:04",28614.000,"cc",28357.315,6.00,6,0.100,15410.000,0.200,9144.000,0.300,2914.000,0.500,1041.000,1.000,105.000,5.000,0
"03/10/08","00:10:10",28572.000,"cc",28311.172,6.00,6,0.100,15132.000,0.200,9298.000,0.300,2988.000,0.500,1067.000,1.000,87.000,5.000,0
"03/10/08","00:10:16",34061.000,"cc",28346.352,6.00,6,0.100,19756.000,0.200,9859.000,0.300,3207.000,0.500,1117.000,1.000,122.000,5.000,0
"03/10/08","00:10:22",34602.000,"cc",28326.371,6.00,6,0.100,20373.000,0.200,9955.000,0.300,3071.000,0.500,1107.000,1.000,96.000,5.000,0
"03/10/08","00:10:28",26609.000,"cc",28318.643,6.00,6,0.100,13651.000,0.200,9045.000,0.300,2843.000,0.500,984.000,1.000,86.000,5.000,0
"03/10/08","00:10:34",27588.000,"cc",28274.410,6.00,6,0.100,14496.000,0.200,9080.000,0.300,2891.000,0.500,1023.000,1.000,98.000,5.000,0
"03/10/08","00:10:40",30694.000,"cc",28334.078,6.00,6,0.100,16646.000,0.200,9511.000,0.300,3181.000,0.500,1223.000,1.000,133.000,5.000,0
"03/10/08","00:10:46",29832.000,"cc",28301.656,6.00,6,0.100,16227.000,0.200,9592.000,0.300,2925.000,0.500,977.000,1.000,111.000,5.000,0
"03/10/08","00:10:52",33631.000,"cc",28306.719,6.00,6,0.100,19510.000,0.200,9831.000,0.300,3051.000,0.500,1122.000,1.000,117.000,5.000,0
"03/10/08","00:10:58",28764.000,"cc",28301.190,6.00,6,0.100,15461.000,0.200,9189.000,0.300,2937.000,0.500,1063.000,1.000,114.000,5.000,0
"03/10/08","00:11:04",27815.000,"cc",28282.975,6.00,6,0.100,14418.000,0.200,9209.000,0.300,2983.000,0.500,1093.000,1.000,112.000,5.000,0
"03/10/08","00:11:10",25933.000,"cc",28309.779,6.00,6,0.100,13004.000,0.200,8837.000,0.300,3022.000,0.500,993.000,1.000,77.000,5.000,0
"03/10/08","00:11:16",26010.000,"cc",28306.211,6.00,6,0.100,12849.000,0.200,8867.000,0.300,3073.000,0.500,1137.000,1.000,84.000,5.000,0
"03/10/08","00:11:22",25515.000,"cc",28292.496,6.00,6,0.100,12588.000,0.200,8782.000,0.300,3034.000,0.500,1015.000,1.000,96.000,5.000,0
"03/10/08","00:11:28",25806.000,"cc",28346.717,6.00,6,0.100,12745.000,0.200,8904.000,0.300,3023.000,0.500,1051.000,1.000,83.000,5.000,0
"03/10/08","00:11:34",25433.000,"cc",28304.744,6.00,6,0.100,12442.000,0.200,8862.000,0.300,3062.000,0.500,993.000,1.000,74.000,5.000,0
"03/10/08","00:11:40",25461.000,"cc",28302.123,6.00,6,0.100,12343.000,0.200,8913.000,0.300,3033.000,0.500,1082.000,1.000,90.000,5.000,0
"03/10/08","00:11:46",24952.000,"cc",28248.516,6.00,6,0.100,12154.000,0.200,8800.000,0.300,2940.000,0.500,994.000,1.000,64.000,5.000,0
"03/10/08","00:11:52",25507.000,"cc",28319.674,6.00,6,0.100,12412.000,0.200,9092.000,0.300,2964.000,0.500,986.000,1.000,53.000,5.000,0
"03/10/08","00:11:58",25519.000,"cc",28352.527,6.00,6,0.100,12382.000,0.200,9013.000,0.300,3047.000,0.500,1004.000,1.000,73.000,5.000,0
"03/10/08","00:12:04",25395.000,"cc",28303.834,6.00,6,0.100,12298.000,0.200,8918.000,0.300,3124.000,0.500,988.000,1.000,67.000,5.000,0
"03/10/08","00:12:10",25886.000,"cc",28381.322,6.00,6,0.100,12539.000,0.200,9090.000,0.300,3095.000,0.500,1078.000,1.000,84.000,5.000,0
"03/10/08","00:12:16",25390.000,"cc",28244.762,6.00,6,0.100,12242.000,0.200,9004.000,0.300,3082.000,0.500,992.000,1.000,70.000,5.000,0
"03/10/08","00:12:22",25962.000,"cc",28383.893,6.00,6,0.100,12481.000,0.200,9135.000,0.300,3108.000,0.500,1163.000,1.000,75.000,5.000,0
"03/10/08","00:12:28",25507.000,"cc",28381.410,6.00,6,0.100,12442.000,0.200,8946.000,0.300,3002.000,0.500,1054.000,1.000,63.000,5.000,0
"03/10/08","00:12:34",25365.000,"cc",28355.865,6.00,6,0.100,12186.000,0.200,8884.000,0.300,3052.000,0.500,1163.000,1.000,80.000,5.000,0
"03/10/08","00:12:40",25064.000,"cc",28349.916,6.00,6,0.100,12123.000,0.200,8780.000,0.300,2979.000,0.500,1096.000,1.000,86.000,5.000,0
"03/10/08","00:12:46",24655.000,"cc",28361.074,6.00,6,0.100,11831.000,0.200,8597.000,0.300,3056.000,0.500,1096.000,1.000,75.000,5.000,0
"03/10/08","00:12:52",25575.000,"cc",28321.139,6.00,6,0.100,12239.000,0.200,8891.000,0.300,3098.000,0.500,1254.000,1.000,93.000,5.000,0
"03/10/08","00:12:58",24991.000,"cc",28355.877,6.00,6,0.100,11973.000,0.200,8669.000,0.300,3046.000,0.500,1194.000,1.000,109.000,5.000,0
"03/10/08","00:13:04",25023.000,"cc",28372.943,6.00,6,0.100,12050.000,0.200,8710.000,0.300,3020.000,0.500,1147.000,1.000,96.000,5.000,0
"03/10/08","00:13:10",25150.000,"cc",28329.674,6.00,6,0.100,11912.000,0.200,8829.000,0.300,3072.000,0.500,1228.000,1.000,109.000,5.000,0
"03/10/08","00:13:16",25343.000,"cc",28319.762,6.00,6,0.100,12039.000,0.200,8932.000,0.300,3057.000,0.500,1211.000,1.000,104.000,5.000,0
"03/10/08","00:13:22",25538.000,"cc",28260.377,6.00,6,0.100,12113.000,0.200,8760.000,0.300,3214.000,0.500,1326.000,1.000,125.000,5.000,0
"03/10/08","00:13:28",25173.000,"cc",28319.998,6.00,6,0.100,11945.000,0.200,8838.000,0.300,3114.000,0.500,1163.000,1.000,113.000,5.000,0
"03/10/08","00:13:34",25631.000,"cc",28327.656,6.00,6,0.100,12044.000,0.200,8973.000,0.300,3153.000,0.500,1333.000,1.000,128.000,5.000,0
"03/10/08","00:13:40",25146.000,"cc",28357.996,6.00,6,0.100,11898.000,0.200,8829.000,0.300,3141.000,0.500,1180.000,1.000,98.000,5.000,0
"03/10/08","00:13:46",25106.000,"cc",28273.092,6.00,6,0.100,12091.000,0.200,8711.000,0.300,2997.000,0.500,1195.000,1.000,112.000,5.000,0
"03/10/08","00:13:52",24783.000,"cc",28288.900,6.00,6,0.100,11895.000,0.200,8614.000,0.300,3011.000,0.500,1148.000,1.000,115.000,5.000,0
"03/10/08","00:13:58",24855.000,"cc",28255.231,6.00,6,0.100,11679.000,0.200,8770.000,0.300,3089.000,0.500,1220.000,1.000,97.000,5.000,0
"03/10/08","00:14:04",24765.000,"cc",28282.035,6.00,6,0.100,11823.000,0.200,8777.000,0.300,2957.000,0.500,1113.000,1.000,95.000,5.000,0
"03/10/08","00:14:10",25163.000,"cc",28391.758,6.00,6,0.100,12031.000,0.200,8865.000,0.300,2977.000,0.500,1185.000,1.000,105.000,5.000,0
"03/10/08","00:14:16",24483.000,"cc",28224.793,6.00,6,0.100,11765.000,0.200,8555.000,0.300,2907.000,0.500,1138.000,1.000,118.000,5.000,0
"03/10/08","00:14:22",24957.000,"cc",28213.301,6.00,6,0.100,11916.000,0.200,8748.000,0.300,3016.000,0.500,1173.000,1.000,104.000,5.000,0
"03/10/08","00:14:28",25481.000,"cc",28380.545,6.00,6,0.100,12163.000,0.200,8863.000,0.300,3116.000,0.500,1237.000,1.000,102.000,5.000,0
"03/10/08","00:14:34",25013.000,"cc",28356.658,6.00,6,0.100,11712.000,0.200,8978.000,0.300,3055.000,0.500,1156.000,1.000,112.000,5.000,0
"03/10/08","00:14:40",24834.000,"cc",28221.502,6.00,6,0.100,11826.000,0.200,8754.000,0.300,2996.000,0.500,1164.000,1.000,94.000,5.000,0
"03/10/08","00:14:46",25078.000,"cc",28262.303,6.00,6,0.100,12056.000,0.200,8692.000,0.300,2990.000,0.500,1230.000,1.000,110.000,5.000,0
"03/10/08","00:14:52",25393.000,"cc",28331.383,6.00,6,0.100,12113.000,0.200,8887.000,0.300,3077.000,0.500,1209.000,1.000,107.000,5.000,0
"03/10/08","00:14:58",24794.000,"cc",28334.551,6.00,6,0.100,11904.000,0.200,8560.000,0.300,3071.000,0.500,1145.000,1.000,114.000,5.000,0
"03/10/08","00:15:04",25028.000,"cc",28185.727,6.00,6,0.100,11948.000,0.200,8666.000,0.300,3063.000,0.500,1232.000,1.000,119.000,5.000,0
"03/10/08","00:15:10",24853.000,"cc",28364.088,6.00,6,0.100,11889.000,0.200,8728.000,0.300,2995.000,0.500,1118.000,1.000,123.000,5.000,0
"03/10/08","00:15:16",24667.000,"cc",28331.693,6.00,6,0.100,11824.000,0.200,8598.000,0.300,2942.000,0.500,1182.000,1.000,121.000,5.000,0
"03/10/08","00:15:22",24639.000,"cc",28305.572,6.00,6,0.100,11849.000,0.200,8571.000,0.300,2988.000,0.500,1127.000,1.000,104.000,5.000,0
"03/10/08","00:15:28",24991.000,"cc",28309.703,6.00,6,0.100,12131.000,0.200,8632.000,0.300,2917.000,0.500,1179.000,1.000,132.000,5.000,0
"03/10/08","00:15:34",25417.000,"cc",28401.518,6.00,6,0.100,12228.000,0.200,8854.000,0.300,2961.000,0.500,1257.000,1.000,117.000,5.000,0
"03/10/08","00:15:40",25278.000,"cc",28331.840,6.00,6,0.100,12206.000,0.200,8855.000,0.300,2943.000,0.500,1167.000,1.000,107.000,5.000,0
"03/10/08","00:15:46",24692.000,"cc",28292.545,6.00,6,0.100,11622.000,0.200,8814.000,0.300,2969.000,0.500,1165.000,1.000,122.000,5.000,0
"03/10/08","00:15:52",25634.000,"cc",28389.686,6.00,6,0.100,12187.000,0.200,8858.000,0.300,3113.000,0.500,1334.000,1.000,142.000,5.000,0
"03/10/08","00:15:58",25012.000,"cc",28359.852,6.00,6,0.100,12072.000,0.200,8506.000,0.300,3016.000,0.500,1277.000,1.000,141.000,5.000,0
"03/10/08","00:16:04",26175.000,"cc",28248.102,6.00,6,0.100,13267.000,0.200,8670.000,0.300,2972.000,0.500,1154.000,1.000,112.000,5.000,0
"03/10/08","00:16:10",26833.000,"cc",28321.400,6.00,6,0.100,13227.000,0.200,9077.000,0.300,3077.000,0.500,1306.000,1.000,146.000,5.000,0
"03/10/08","00:16:16",26351.000,"cc",28339.598,6.00,6,0.100,13052.000,0.200,8827.000,0.300,3052.000,0.500,1268.000,1.000,152.000,5.000,0
"03/10/08","00:16:22",34937.000,"cc",28399.736,6.00,6,0.100,20564.000,0.200,9796.000,0.300,3066.000,0.500,1363.000,1.000,148.000,5.000,0
"03/10/08","00:16:28",37758.000,"cc",28326.729,6.00,6,0.100,22542.000,0.200,10293.000,0.300,3258.000,0.500,1495.000,1.000,170.000,5.000,0